Springfield, IL

10:08 AM CST on December 06, 2019 (GMT -0600)
Capital

Weather History for KSPI - October, 2019

Change the Weather History Date:

Tuesday, October 15, 2019

  Actual Average Record
Temperature  
Mean Temperature 58 °F 55 °F  
Max Temperature 66 °F 67 °F 89 °F (1963)
Min Temperature 48 °F 44 °F 27 °F (2006)
Degree Days  
Heating Degree Days 7 10  
Month to date heating degree days 125  
Since 1 July heating degree days 206  
Cooling Degree Days 0 1  
Month to date cooling degree days 17  
Year to date cooling degree days 1116  
Growing Degree Days 8 (Base 50)    
Moisture  
Dew Point 46 °F    
Average Humidity 66    
Maximum Humidity 75    
Minimum Humidity 48    
Precipitation  
Precipitation 0.00 in 0.10 in 1.07 in (1967)
Month to date precipitation 1.47  
Year to date precipitation 30.02  
Snow  
Snow 0.00 in 0.00 in 0.00 in ()
Month to date snowfall 0.0  
Since 1 July snowfall 0.0  
Since 1 September snowfall 0.0  
Snow Depth -    
Sea Level Pressure  
Sea Level Pressure 29.89 in    
Wind  
Wind Speed 10 mph (SW)    
Max Wind Speed 24 mph    
Max Gust Speed 36 mph    
Visibility 10 miles    
Events Rain    
T = Trace of Precipitation, MM = Missing Value Source: NWS Daily Summary

Daily Weather History Graph

Daily Weather History Graph

Search for Another Location

Airport or City:

Astronomy

Oct. 15, 2019 Rise Set
Actual Time 7:08 AM CDT 6:19 PM CDT
Civil Twilight 6:41 AM CDT 6:46 PM CDT
Nautical Twilight 6:10 AM CDT 7:18 PM CDT
Astronomical Twilight 5:38 AM CDT 7:49 PM CDT
Moon 7:39 PM CDT (10/15) 8:39 AM CDT (10/15)
Length of Visible Light 12h 05m
Length of Day
11h 10m
Full, 97% of the Moon is Illuminated
Oct 15
Full
Oct 21
Last Quarter
Oct 27
New
Nov 4
First Quarter
Nov 12
Full

Hourly Weather History & Observations

Time (CDT) Temp. Dew Point Humidity Pressure Visibility Wind Dir Wind Speed Gust Speed Precip Events Conditions
12:52 AM 51.1 °F 37.0 °F 59% 29.99 in 10.0 mi SSE 8.1 mph - N/A   Clear
1:52 AM 52.0 °F 37.0 °F 57% 29.99 in 10.0 mi South 10.4 mph - N/A   Clear
2:52 AM 52.0 °F 37.9 °F 59% 29.97 in 10.0 mi South 8.1 mph - N/A   Clear
3:52 AM 50.0 °F 39.9 °F 68% 29.96 in 10.0 mi SSE 6.9 mph - 0.00 in Rain Light Rain
4:52 AM 50.0 °F 41.0 °F 71% 29.94 in 10.0 mi SSE 8.1 mph - 0.00 in   Clear
5:52 AM 51.1 °F 42.1 °F 71% 29.92 in 10.0 mi SSE 10.4 mph - N/A   Mostly Cloudy
6:52 AM 54.0 °F 44.1 °F 69% 29.92 in 10.0 mi South 8.1 mph - N/A   Overcast
7:52 AM 53.1 °F 45.0 °F 74% 29.91 in 10.0 mi South 10.4 mph - N/A   Mostly Cloudy
8:52 AM 55.9 °F 46.9 °F 72% 29.90 in 10.0 mi South 9.2 mph - N/A   Overcast
9:14 AM 55.9 °F 46.9 °F 72% 29.90 in 10.0 mi South 9.2 mph - N/A   Overcast
9:52 AM 57.9 °F 48.9 °F 72% 29.89 in 10.0 mi SSW 10.4 mph - N/A   Overcast
10:52 AM 61.0 °F 52.0 °F 72% 29.88 in 10.0 mi SW 5.8 mph - N/A   Overcast
11:52 AM 62.1 °F 54.0 °F 75% 29.86 in 10.0 mi South 10.4 mph - N/A   Overcast
12:52 PM 64.0 °F 55.0 °F 73% 29.83 in 10.0 mi SSW 11.5 mph - N/A   Overcast
1:52 PM 64.9 °F 55.9 °F 73% 29.81 in 10.0 mi SW 10.4 mph - N/A   Overcast
2:52 PM 64.9 °F 55.9 °F 73% 29.81 in 10.0 mi WSW 9.2 mph - N/A   Overcast
3:52 PM 66.9 °F 57.0 °F 70% 29.81 in 10.0 mi SW 6.9 mph - N/A   Overcast
4:34 PM 66.9 °F 57.0 °F 70% 29.81 in 10.0 mi West 12.7 mph - N/A   Overcast
4:52 PM 66.9 °F 55.9 °F 68% 29.81 in 10.0 mi West 10.4 mph - N/A   Overcast
5:52 PM 64.9 °F 55.0 °F 70% 29.80 in 10.0 mi West 8.1 mph - N/A   Partly Cloudy
6:52 PM 62.1 °F 42.1 °F 48% 29.83 in 10.0 mi WNW 10.4 mph 19.6 mph N/A   Partly Cloudy
7:52 PM 59.0 °F 39.9 °F 49% 29.87 in 10.0 mi NW 10.4 mph 20.7 mph N/A   Clear
8:52 PM 55.9 °F 39.0 °F 53% 29.90 in 10.0 mi WNW 11.5 mph 19.6 mph N/A   Clear
9:52 PM 53.1 °F 36.0 °F 52% 29.93 in 10.0 mi NW 24.2 mph 35.7 mph 0.00 in Rain Light Rain
10:52 PM 50.0 °F 36.0 °F 59% 29.94 in 10.0 mi NW 16.1 mph 23.0 mph 0.00 in   Clear
11:52 PM 48.9 °F 36.0 °F 61% 29.95 in 10.0 mi NW 11.5 mph 25.3 mph 0.00 in   Clear